ミュラー第4彗星

149P/Mueller 4 (2010)

English version
Home page
Updated on October 3, 2010

---------------------------------------------------------------------

・ プロフィール

・ 写真集

・ 軌道要素

The following orbital elements are taken from MPC 59598:

Epoch 2010 Feb. 13.0 TT = JDT 2455240.5
T 2010 Feb. 19.2058 TT                                  MPC
q   2.650930             (2000.0)            P               Q
n   0.1091958      Peri.   43.7666      -0.9357055      +0.2111703
a   4.335098       Node   145.2657      -0.2118364      -0.9768875
e   0.388496       Incl.   29.7349      +0.2821001      -0.0331340
P   9.03
From 100 observations 1992-2001, mean residual 0".8.

・ 光度変化

        m1 = -2.3 + 5 logΔ + 44 log r(t - 150)

---------------------------------------------------------------------

軌道要素はMPCのEphemerides and Orbital Elementsに掲載されたものです。
光度グラフはComet for Windowsで作成したものです。

---------------------------------------------------------------------

Copyright(C) Seiichi Yoshida (comet@aerith.net). All rights reserved.